Location: Oshawa
(43.9000°N, 78.8670°W)
Time: 20:57:50
(UTC-05:00)

Daily predictions for brighter satellites

Satellite Brightness Start Highest point End
(mag) Time Altitude Azimuth Time Altitude Azimuth Time Altitude Azimuth
ATLAS 3B R/B 4.5 17:01:32 10° WNW 17:06:41 21° NNW 17:11:41 10° NNE
Cosmos 1763 Rocket 3.5 17:03:23 10° NNW 17:08:36 71° ENE 17:13:43 10° SSE
Sich 1 Rocket 4.4 17:05:52 10° NNE 17:09:48 30° ENE 17:13:44 10° SE
Cosmos 1833 Rocket 3.3 17:06:18 10° N 17:11:26 35° NE 17:16:33 10° ESE
Lacrosse 5 3.5 17:07:56 10° WNW 17:11:55 22° NNW 17:15:54 10° NE
Cosmos 44 4.1 17:09:53 10° NNW 17:13:56 29° NE 17:18:09 10° ESE
AQUARIUS 4.4 17:16:16 10° SSE 17:20:36 50° ENE 17:24:58 10° N
MSX 4.2 17:15:17 10° S 17:21:02 73° WSW 17:26:50 10° NNW
Cosmos 1844 4.4 17:16:18 10° SW 17:21:59 59° WNW 17:27:44 10° NNE
CORIOLIS 4.3 17:18:06 10° SE 17:23:21 51° ENE 17:28:37 10° N
Cosmos 2278 Rocket 2.2 17:19:42 10° SSW 17:25:22 77° ESE 17:31:04 10° NNE
Cosmos 1782 Rocket 4.2 17:24:33 10° N 17:28:30 32° ENE 17:32:25 10° SE
Cosmos 1814 Rocket 4.4 17:23:45 10° NNW 17:29:06 71° WSW 17:34:26 10° S
Cosmos 540 Rocket 3.8 17:24:20 10° N 17:29:17 42° ENE 17:34:10 10° SE
Meteor 1-14 Rocket 4.2 17:24:20 10° N 17:30:00 76° E 17:35:33 10° SSE
ALOS 3.5 17:29:48 10° ESE 17:33:13 21° ENE 17:36:39 10° NNE
SL-27 R/B 2.2 17:31:16 10° NNW 17:34:36 67° ENE 17:37:56 10° SSE
Cosmos 1437 3.8 17:32:11 10° SSW 17:35:14 46° WNW 17:38:19 10° N
COSMO-SKYMED 1 3.7 17:32:45 10° NE 17:36:17 24° E 17:39:48 10° SSE
YAOGAN 1 3.0 17:32:42 10° SE 17:36:44 40° ENE 17:40:48 10° N
CZ-4C R/B 3.3 17:31:26 10° NNW 17:37:53 39° NE 17:45:04 10° ESE
Meteor 1-28 Rocket 3.4 17:34:23 10° NNE 17:37:59 46° E 17:41:33 10° S
USA 161 3.7 17:36:47 10° NNW 17:38:11 17° WNW 17:39:40 10° WSW
SMAP 3.0 17:34:47 10° SSE 17:39:25 80° ENE 17:44:05 10° N
Meteor 1-26 Rocket 4.4 17:37:27 10° SSW 17:43:01 76° W 17:48:34 10° N
COSMOS 2487 4.2 17:40:59 10° NNE 17:42:52 15° NE 17:42:52 15° NE
Cosmos 1503 Rocket 4.3 17:38:23 10° S 17:43:24 46° ESE 17:48:23 10° NNE
Ariane Rocket 3.1 17:39:00 10° SSE 17:44:06 84° WSW 17:49:12 10° NNW
Cosmos 841 Rocket 3.8 17:40:43 10° NNW 17:46:00 75° WSW 17:51:14 10° SSE
Meteor 1-11 Rocket 4.5 17:40:55 10° N 17:46:03 30° ENE 17:51:02 10° SE
Cosmos 1606 2.8 17:43:07 10° S 17:46:47 51° E 17:50:28 10° NNE
Landsat 4 4.0 17:47:16 10° NNE 17:50:56 46° E 17:54:36 10° S
IRS-1A Rocket 4.3 17:45:21 10° SSE 17:51:06 71° ENE 17:56:47 10° N
Cosmos 836 Rocket 4.5 17:47:12 10° NNW 17:52:26 65° ENE 17:57:39 10° SSE
METEOR-M 4.2 17:48:44 10° SSE 17:53:54 54° ENE 17:59:06 10° N
CSL-04 Rocket 4.3 17:51:43 10° S 17:56:56 59° WSW 18:02:14 10° NNW
Cosmos 1703 Rocket 3.5 17:53:22 10° S 17:57:50 82° E 18:02:18 10° N
Cosmos 1484 Rocket 3.5 17:55:05 10° S 17:58:53 57° W 18:02:48 10° NNW
EO 1 Del DPAF 3.8 17:57:04 16° NE 17:59:41 36° E 18:03:13 10° SSE
Cosmos 2221 Rocket 3.6 17:57:31 10° S 18:01:50 56° E 18:06:10 10° NNE
Cosmos 2151 Rocket 4.5 17:59:40 10° NNE 18:03:25 26° ENE 18:07:10 10° SE
Cosmos 2034 Rocket 4.3 17:58:07 10° SSE 18:04:05 45° E 18:10:04 10° NNE
Cosmos 2082 Rocket 2.1 17:58:22 10° NNW 18:04:06 83° ENE 18:09:46 10° SSE
Cosmos 1486 Rocket 4.5 17:59:06 10° SSW 18:04:15 62° WNW 18:09:29 10° NNE
ERS-2 2.0 18:04:30 10° SSE 18:08:09 67° ENE 18:11:49 10° N
CENTAUR R/B 4.0 18:02:49 10° W 18:08:26 32° NW 18:14:47 10° NNE
CZ-4 R/B 1.9 18:06:34 10° S 18:10:22 59° W 18:14:10 10° NNW
MOS 1 4.2 18:04:48 10° SSE 18:10:27 68° ENE 18:16:08 10° N
Timation 2 Rocket 4.4 18:04:31 10° NNW 18:11:02 46° NE 18:17:17 10° SE
COSMOS 2455 4.2 18:06:29 10° WSW 18:11:56 35° NW 18:17:27 10° NNE
Meteor 2-6 Rocket 4.1 18:08:42 10° S 18:14:07 71° E 18:19:43 10° NNE
Cosmos 1602 3.7 18:11:55 10° N 18:15:43 56° E 18:19:29 10° SSE
Okean 2 Rocket 3.0 18:11:56 10° N 18:16:28 69° E 18:20:58 10° SSE
Cosmos 1633 3.3 18:15:28 10° NNW 18:19:04 55° W 18:22:39 10° S
USA 229 DEB 4.5 18:15:31 10° S 18:21:09 29° ESE 18:22:43 26° E
USA 229 4.5 18:15:39 10° SSE 18:21:15 29° ESE 18:22:46 26° E
Cosmos 1354 Rocket 4.1 18:17:57 10° SSW 18:23:14 81° WNW 18:28:19 11° NNE
Cosmos 405 Rocket 2.5 18:19:45 10° S 18:23:30 68° E 18:25:14 29° NNE
Cosmos 783 Rocket 4.5 18:18:21 10° NNW 18:23:39 63° ENE 18:28:55 10° SSE
SKYMED 2 3.4 18:20:16 11° NNE 18:24:32 77° ESE 18:28:52 10° S
CZ-2C R/B 4.3 18:23:39 10° N 18:28:03 56° WNW 18:32:29 10° SSW
Cosmos 1782 3.7 18:25:21 10° SSW 18:29:15 49° WNW 18:33:10 10° N
BREEZE-M R/B 4.2 18:27:59 10° W 18:30:35 30° SSW 18:34:43 10° SSE
Cosmos 1464 Rocket 3.9 18:24:39 10° S 18:30:47 86° W 18:37:00 10° N
BREEZE-M DEB (TANK) 2.1 18:30:09 10° WNW 18:32:13 75° N 18:32:13 75° N
SPOT 3 Rocket 3.5 18:28:13 10° SSE 18:33:27 85° ENE 18:38:41 10° NNW
FengYun 1-2 T 4.5 18:31:44 17° SE 18:35:43 44° ENE 18:40:59 10° N
Cosmos 44 Rocket 3.5 18:30:59 10° NW 18:35:52 72° WSW 18:40:49 10° SSE
FENGYUN 3A 3.5 18:33:27 10° SSE 18:38:51 81° ENE 18:44:17 10° NNW
Cosmos 292 Rocket 4.0 18:35:00 10° NNW 18:39:44 71° WSW 18:44:27 10° S
Cosmos 1538 Rocket 4.4 18:36:16 10° N 18:40:58 41° NE 18:40:58 41° NE
Okean 1-7 4.0 18:37:49 10° SSW 18:42:03 47° WNW 18:46:19 10° N
Meteor 2-20 Rocket 4.3 18:36:47 10° N 18:42:53 69° E 18:48:55 10° SSE
Meteor 1-5 Rocket 4.1 18:38:02 10° N 18:43:17 54° ENE 18:48:28 10° SSE
Meteor 1-27 Rocket 3.8 18:43:45 10° S 18:49:40 89° ESE 18:55:39 10° N
Cosmos 44 4.4 18:50:48 10° NW 18:55:15 43° WSW 18:59:57 10° S
Cosmos 1833 Rocket 4.1 18:50:14 10° NW 18:55:22 38° WSW 19:00:30 10° S
Lacrosse 5 3.6 18:52:52 10° NW 18:56:22 19° N 18:56:22 19° N
Cosmos 2369 Rocket 3.6 18:55:14 10° S 18:57:34 23° SSE 18:57:34 23° SSE
Thor Agena Rocket 4.3 19:04:54 38° SSE 19:04:54 38° SSE 19:08:12 10° S
Cosmos 2278 Rocket 4.4 19:06:00 10° W 19:10:07 20° NW 19:14:14 10° N
ALOS 3.2 19:05:51 10° S 19:10:20 46° W 19:14:51 10° NNW
COSMO-SKYMED 1 4.2 19:08:54 12° N 19:12:29 33° WNW 19:16:22 10° SW
USA 234 3.1 19:14:26 61° ENE 19:15:41 78° SE 19:22:13 10° SW
Cosmos 968 Rocket 3.8 19:14:33 10° SSW 19:19:40 62° WNW 19:20:41 51° NNW
CZ-4C R/B 3.3 19:19:46 10° NW 19:26:54 63° WSW 19:32:49 19° SSE
USA 229 DEB 4.3 20:04:56 10° SW 20:10:12 52° W 20:10:12 52° W
USA 229 4.3 20:05:02 10° SW 20:10:16 51° W 20:10:16 51° W
